Regional Weather Roundup
Issued by NWS

Home | Current Version | Previous Version | Graphics & Text | Print | Product List | Glossary On
Versions: 1 2 3 4 5 6 7 8 9 10 11 12 13 14 15 16 17 18 19 20 21 22 23 24 25 26 27 28 29 30 31 32 33 34 35 36 37 38 39 40 41 42 43 44 45 46 47 48 49 50
000
ASUS43 KFSD 010810
RWRSD

WEATHER ROUNDUP FOR SOUTH DAKOTA
NATIONAL WEATHER SERVICE SIOUX FALLS SD
200 AM CST WED MAR 01 2017

NOTE: "FAIR" INDICATES FEW OR NO CLOUDS BELOW 12,000 FEET WITH NO
SIGNIFICANT WEATHER AND/OR OBSTRUCTIONS TO VISIBILITY.


SDZ001>005-009-010-012>017-010900-
NORTHWEST AND NORTH CENTRAL SOUTH DAKOTA

CITY           SKY/WX    TMP DP  RH WIND       PRES   REMARKS
BUFFALO          N/A     28  24  85 NW20      29.81R WCI  15
FAITH            N/A     17  13  84 SW7       29.87R WCI   8
MOBRIDGE       CLEAR     17  12  80 N5        29.88R WCI  10
$$

SDZ012>016-024>037-041>051-057-063-072>074-010900-
SOUTHWEST AND SOUTH CENTRAL SOUTH DAKOTA

CITY           SKY/WX    TMP DP  RH WIND       PRES   REMARKS
RAPID CTY ARPT CLOUDY    27  20  75 NW12      29.89R WCI  17
PIERRE         CLOUDY    22  20  92 W5        29.91R WCI  16
CUSTER         CLOUDY    21   9  59 NW14G29   29.82R WCI   8
ELLSWORTH AFB  MOCLDY    28  22  76 NW15      29.87R WCI  17
PHILIP         CLEAR     14  12  92 W7        29.92R WCI   4
PINE RIDGE     CLEAR     22  15  75 W7        29.91R WCI  13
SPEARFISH      CLOUDY    28  18  64 W21       29.89R WCI  15
$$

SDZ004>011-016>023-039-040-010900-
NORTHEAST SOUTH DAKOTA

CITY           SKY/WX    TMP DP  RH WIND       PRES   REMARKS
ABERDEEN       CLOUDY    23  17  78 N10       29.90R WCI  12
WATERTOWN      CLOUDY    22  20  92 N12       29.82R WCI  10
BROOKINGS      LGT SNOW  27  25  92 N13       29.80R FOG     WCI  16
SISSETON         N/A     22  19  89 N15       29.86R WCI   9
$$

SDZ017-020-022-023-036>040-048>070-010900-
SOUTHEAST SOUTH DAKOTA

CITY           SKY/WX    TMP DP  RH WIND       PRES   REMARKS
SIOUX FALLS    CLOUDY    31  30  96 NW12      29.80S FOG     WCI  22
HURON          LGT SNOW  25  24  96 N13       29.88R FOG     WCI  14
CHAMBERLAIN    CLOUDY    28  27  96 NW9       29.91R WCI  19
MITCHELL       LGT SNOW  27  25  92 NW15      29.88R FOG     WCI  15
YANKTON        CLOUDY    30  27  86 NW18      29.83S WCI  18
$$

ABBREVIATIONS USED IN REMARKS
   TC - TEMPERATURE IN CELSIUS
  WCI - WIND CHILL INDEX
   HX - HEAT INDEX
  VSB - VISIBILITY




USA.gov is the U.S. government's official web portal to all federal, state and local government web resources and services.